Herbert Island, British Columbia

6:01 AM PST on February 22, 2017 (GMT -0800)
Herbert Island

Weather History for CWLP - January, 2013

Change the Weather History Date:

Sunday, January 6, 2013

  Actual Average (CYZT) Record (CYZT)
Temperature  
Mean Temperature 40 °F -  
Max Temperature 43 °F 41 °F 51 °F (2002)
Min Temperature 37 °F 33 °F 28 °F (2004)
Degree Days  
Heating Degree Days 25    
Moisture  
Dew Point 37 °F    
Average Humidity 86    
Maximum Humidity 92    
Minimum Humidity 77    
Precipitation  
Precipitation 0.24 in - - ()
Sea Level Pressure  
Sea Level Pressure 29.88 in    
Wind  
Wind Speed 21 mph ()    
Max Wind Speed 41 mph    
Max Gust Speed 52 mph    
Averages and records for this station are not official NWS values.
T = Trace of Precipitation, MM = Missing Value Source: Averaged Metar Reports

Daily Weather History Graph

Daily Weather History Graph

Search for Another Location

Airport or City:

Trip Planner

Search our weather history database for the weather conditions in past years. The results will help you decide how hot, cold, wet, or windy it might be!

Date:

Astronomy

Jan. 06, 2013 Rise Set
Actual Time 8:32 AM PST 4:41 PM PST
Civil Twilight 7:53 AM PST 5:20 PM PST
Nautical Twilight 7:11 AM PST 6:02 PM PST
Astronomical Twilight 6:31 AM PST 6:42 PM PST
Moon 2:39 AM PST (1/6) 12:25 PM PST (1/6)
Length of Visible Light 9h 26m
Length of Day
8h 09m
Waning Crescent, 32% of the Moon is Illuminated
Jan 6
Waning Crescent
Jan 11
New
Jan 18
First Quarter
Jan 26
Full
Feb 3
Last Quarter

Hourly Weather History & Observations

Time (PST) Temp. Windchill Dew Point Humidity Pressure Visibility Wind Dir Wind Speed Gust Speed Precip Events Conditions
12:00 AM 40.6 °F 31.7 °F 37.0 °F 87% 29.95 in - SSE 18.4 mph - 0.03 in   Unknown
1:00 AM 40.8 °F 32.3 °F 37.0 °F 86% 29.94 in - SE 17.3 mph - N/A   Unknown
2:00 AM 41.0 °F 32.5 °F 37.0 °F 86% 29.94 in - SSE 17.3 mph 24.2 mph 0.02 in   Unknown
3:00 AM 40.6 °F 32.0 °F 36.7 °F 86% 29.96 in - SE 17.3 mph 24.2 mph 0.02 in   Unknown
4:00 AM 41 °F - 37 °F 80% 29.96 in - SE 13.8 mph - -  
4:00 AM 41.2 °F 33.7 °F 36.9 °F 85% 29.96 in - SE 13.8 mph - 0.04 in   Unknown
5:00 AM 40.8 °F 31.7 °F 36.9 °F 86% 29.95 in - SSE 19.6 mph - 0.05 in   Unknown
6:00 AM 40.3 °F 30.7 °F 36.9 °F 88% 29.94 in - SE 20.7 mph - 0.06 in   Unknown
7:00 AM 38.8 °F 28.3 °F 35.8 °F 89% 29.93 in - ESE 23.0 mph - N/A   Unknown
8:00 AM 37.6 °F 26.1 °F 35.4 °F 92% 29.93 in - ESE 25.3 mph - 0.06 in   Unknown
9:00 AM 39.2 °F 28.5 °F 37.0 °F 92% 29.93 in - ESE 24.2 mph - 0.05 in   Unknown
10:00 AM 40 °F - 37 °F 84% 29.94 in - ESE 24.2 mph - -  
10:00 AM 40.1 °F 29.7 °F 36.9 °F 88% 29.94 in - ESE 24.2 mph - N/A   Unknown
11:00 AM 41.2 °F 31.1 °F 37.6 °F 87% 29.94 in - ESE 24.2 mph - N/A   Unknown
12:00 PM 41.4 °F 32.1 °F 37.8 °F 87% 29.93 in - ESE 20.7 mph - N/A   Unknown
1:00 PM 41.7 °F 31.6 °F 37.6 °F 85% 29.91 in - ESE 25.3 mph - N/A   Unknown
2:00 PM 42.4 °F 33.3 °F 38.1 °F 85% 29.89 in - ESE 21.9 mph - N/A   Unknown
3:00 PM 43.2 °F 33.2 °F 37.9 °F 82% 29.85 in - ESE 27.6 mph - N/A   Unknown
4:00 PM 43 °F - 38 °F 77% 29.84 in - ESE 29.9 mph - -  
4:00 PM 42.8 °F 32.3 °F 38.1 °F 84% 29.84 in - ESE 29.9 mph - N/A   Unknown
5:00 PM 43.2 °F 32.8 °F 38.5 °F 84% 29.83 in - ESE 29.9 mph - N/A   Unknown
7:00 PM 43.0 °F 31.2 °F 38.1 °F 83% 29.77 in - ESE 39.1 mph - N/A   Unknown
8:00 PM 42.6 °F 31.4 °F 38.1 °F 84% 29.75 in - ESE 34.5 mph 42.6 mph N/A   Unknown
9:00 PM 43.0 °F 31.7 °F 38.7 °F 85% 29.73 in - ESE 35.7 mph 42.6 mph N/A   Unknown
10:00 PM 42 °F - 38 °F 82% 29.70 in - ESE 40.3 mph - -  
10:00 PM 41.9 °F 29.6 °F 38.3 °F 87% 29.70 in - ESE 40.3 mph 48.3 mph N/A   Unknown
11:00 PM 41.2 °F 28.4 °F 38.3 °F 89% 29.69 in - ESE 41.4 mph 51.8 mph N/A   Unknown